Change the Weather History Date:

Sunday, May 11, 2014

  Actual Average (KGHW) Record (KGHW)
Temperature  
Mean Temperature 53 °F -  
Max Temperature 61 °F 68 °F 86 °F (1985)
Min Temperature 45 °F 43 °F 28 °F (1960)
Degree Days  
Heating Degree Days 12    
Growing Degree Days 3 (Base 50)    
Moisture  
Dew Point 50 °F    
Average Humidity 86    
Maximum Humidity 99    
Minimum Humidity 68    
Precipitation  
Precipitation 0.44 in - - ()
Sea Level Pressure  
Sea Level Pressure 29.85 in    
Wind  
Wind Speed 6 mph (WNW)    
Max Wind Speed 16 mph    
Max Gust Speed 24 mph    
Visibility 10 miles    
Events Rain    
Averages and records for this station are not official NWS values.
T = Trace of Precipitation, MM = Missing Value Source: NWS Daily Summary

Daily Weather History Graph

Daily Weather History Graph

Search for Another Location

Airport or City:

Trip Planner

Search our weather history database for the weather conditions in past years. The results will help you decide how hot, cold, wet, or windy it might be!

Date:

Astronomy

May. 11, 2014 Rise Set
Actual Time 5:53 AM CDT 8:39 PM CDT
Civil Twilight 5:19 AM CDT 9:14 PM CDT
Nautical Twilight 4:35 AM CDT 9:57 PM CDT
Astronomical Twilight 3:45 AM CDT 10:48 PM CDT
Moon 5:27 PM CDT (5/11) 4:09 AM CDT (5/11)
Length of Visible Light 15h 54m
Length of Day
14h 46m
Waxing Gibbous, 89% of the Moon is Illuminated
May 11
Waxing Gibbous
May 14
Full
May 21
Last Quarter
May 28
New
Jun 5
First Quarter

Hourly Weather History & Observations

Time (CDT) Temp. Windchill Dew Point Humidity Pressure Visibility Wind Dir Wind Speed Gust Speed Precip Events Conditions
12:12 AM 51.8 °F - 50.2 °F 94% 29.82 in 10.0 mi East 4.6 mph - N/A   Clear
12:32 AM 51.3 °F - 50.0 °F 95% 29.82 in 10.0 mi East 6.9 mph - N/A   Clear
1:12 AM 50.4 °F - 49.8 °F 98% 29.81 in 10.0 mi ESE 4.6 mph - N/A   Clear
1:32 AM 50.0 °F - 49.1 °F 97% 29.81 in 10.0 mi ESE 8.1 mph - N/A   Clear
1:52 AM 50.7 °F - 49.3 °F 95% 29.80 in 10.0 mi SE 8.1 mph - N/A   Clear
2:12 AM 50.9 °F - 49.3 °F 94% 29.80 in 10.0 mi SE 9.2 mph - N/A   Clear
2:32 AM 50.0 °F - 48.7 °F 95% 29.80 in 10.0 mi SE 8.1 mph - N/A   Clear
2:52 AM 49.6 °F - 48.4 °F 95% 29.80 in 10.0 mi SSE 6.9 mph - N/A   Clear
3:12 AM 49.1 °F - 47.8 °F 95% 29.80 in 10.0 mi SSE 4.6 mph - N/A   Clear
3:32 AM 48.2 °F - 47.5 °F 97% 29.81 in 10.0 mi Calm Calm - N/A   Clear
3:52 AM 47.3 °F - 46.6 °F 97% 29.81 in 10.0 mi SSE 4.6 mph - N/A   Clear
4:12 AM 46.4 °F - 45.9 °F 98% 29.81 in 7.0 mi Calm Calm - N/A   Clear
4:32 AM 46.4 °F 43.5 °F 45.9 °F 98% 29.80 in 10.0 mi SE 5.8 mph - N/A   Clear
4:52 AM 45.9 °F 43.6 °F 45.3 °F 98% 29.80 in 10.0 mi SE 4.6 mph - N/A   Clear
5:12 AM 46.2 °F 42.2 °F 45.9 °F 99% 29.80 in 10.0 mi SSE 8.1 mph - N/A   Clear
5:31 AM 46.6 °F - 45.9 °F 97% 29.82 in 10.0 mi SSE 4.6 mph - N/A   Clear
5:52 AM 45.7 °F - 45.0 °F 97% 29.83 in 7.0 mi Calm Calm - N/A   Clear
6:12 AM 46.8 °F - 46.0 °F 97% 29.84 in 10.0 mi SSW 4.6 mph - N/A   Clear
6:31 AM 46.8 °F - 46.0 °F 97% 29.84 in 7.0 mi SW 3.5 mph - N/A   Clear
6:52 AM 46.9 °F - 45.9 °F 96% 29.83 in 10.0 mi SSW 3.5 mph - N/A   Clear
7:12 AM 48.2 °F - 46.4 °F 93% 29.83 in 10.0 mi Calm Calm - N/A   Clear
7:32 AM 49.1 °F - 46.8 °F 92% 29.83 in 10.0 mi Calm Calm - N/A   Clear
7:52 AM 50.0 °F - 46.9 °F 89% 29.84 in 10.0 mi WSW 4.6 mph - N/A   Clear
8:12 AM 50.5 °F - 46.4 °F 86% 29.85 in 10.0 mi WSW 3.5 mph - N/A   Clear
8:32 AM 51.8 °F - 47.3 °F 85% 29.86 in 10.0 mi WSW 5.8 mph - N/A   Clear
8:52 AM 53.1 °F - 47.7 °F 82% 29.87 in 10.0 mi WSW 8.1 mph - N/A   Clear
9:12 AM 53.6 °F - 48.4 °F 82% 29.87 in 10.0 mi West 5.8 mph - N/A   Clear
9:32 AM 53.6 °F - 48.4 °F 82% 29.88 in 10.0 mi WSW 6.9 mph - N/A   Clear
9:52 AM 53.6 °F - 48.0 °F 81% 29.88 in 10.0 mi WSW 6.9 mph - N/A   Clear
10:12 AM 54.7 °F - 49.1 °F 81% 29.89 in 10.0 mi West 6.9 mph - N/A   Clear
10:32 AM 54.7 °F - 49.6 °F 83% 29.89 in 10.0 mi West 9.2 mph - N/A   Clear
10:52 AM 54.9 °F - 49.5 °F 82% 29.90 in 10.0 mi West 10.4 mph - N/A   Clear
11:12 AM 54.7 °F - 49.5 °F 83% 29.91 in 10.0 mi West 9.2 mph - N/A   Mostly Cloudy
11:32 AM 54.9 °F - 49.6 °F 83% 29.90 in 10.0 mi West 8.1 mph - N/A   Overcast
11:52 AM 55.2 °F - 49.6 °F 81% 29.89 in 10.0 mi West 6.9 mph - N/A   Scattered Clouds
12:11 PM 55.8 °F - 50.4 °F 82% 29.89 in 10.0 mi WNW 6.9 mph - N/A   Clear
12:32 PM 58.3 °F - 52.0 °F 80% 29.89 in 10.0 mi West 8.1 mph - N/A   Clear
1:12 PM 58.5 °F - 51.4 °F 77% 29.88 in 10.0 mi WNW 8.1 mph - N/A   Overcast
1:32 PM 58.5 °F - 51.4 °F 77% 29.88 in 10.0 mi WNW 3.5 mph - N/A   Mostly Cloudy
1:51 PM 59.4 °F - 51.4 °F 75% 29.88 in 10.0 mi Calm Calm - N/A   Mostly Cloudy
2:12 PM 59.5 °F - 50.9 °F 73% 29.89 in 10.0 mi Calm Calm - N/A   Overcast
2:32 PM 60.3 °F - 51.4 °F 73% 29.89 in 10.0 mi Calm Calm - N/A   Overcast
2:51 PM 60.1 °F - 51.4 °F 73% 29.89 in 10.0 mi Calm Calm - N/A   Overcast
3:12 PM 60.3 °F - 51.3 °F 72% 29.89 in 10.0 mi NNW 3.5 mph - N/A   Overcast
3:32 PM 60.3 °F - 51.1 °F 72% 29.88 in 10.0 mi NNW 5.8 mph - N/A   Overcast
4:12 PM 60.3 °F - 51.3 °F 72% 29.86 in 10.0 mi NNW 5.8 mph - N/A   Overcast
4:32 PM 60.6 °F - 50.0 °F 68% 29.86 in 10.0 mi Calm Calm - N/A   Overcast
4:52 PM 60.4 °F - 51.1 °F 71% 29.85 in 10.0 mi North 3.5 mph - N/A   Overcast
5:12 PM 61.0 °F - 51.4 °F 71% 29.86 in 10.0 mi Calm Calm - N/A   Overcast
5:32 PM 61.0 °F - 52.0 °F 72% 29.85 in 10.0 mi Calm Calm - N/A   Overcast
5:52 PM 60.8 °F - 52.0 °F 73% 29.85 in 10.0 mi Calm Calm - N/A   Overcast
6:12 PM 60.8 °F - 52.2 °F 73% 29.85 in 10.0 mi Calm Calm - N/A   Overcast
6:31 PM 60.4 °F - 52.2 °F 74% 29.83 in 10.0 mi North 4.6 mph - N/A   Overcast
6:52 PM 59.9 °F - 52.2 °F 76% 29.81 in 10.0 mi North 8.1 mph - N/A   Overcast
7:12 PM 59.4 °F - 51.8 °F 76% 29.83 in 10.0 mi NW 8.1 mph - N/A Rain Light Rain
7:31 PM 57.7 °F - 52.9 °F 84% 29.83 in 10.0 mi NW 10.4 mph - 0.02 in Rain Rain
7:52 PM 56.7 °F - 52.5 °F 86% 29.82 in 10.0 mi NNW 6.9 mph - 0.05 in Rain Light Rain
8:12 PM 56.5 °F - 52.3 °F 86% 29.81 in 10.0 mi NNW 11.5 mph - N/A   Overcast
8:31 PM 56.8 °F - 52.7 °F 86% 29.84 in 10.0 mi NW 15.0 mph - N/A   Overcast
8:52 PM 55.9 °F - 52.7 °F 89% 29.85 in 10.0 mi NW 16.1 mph - 0.02 in Rain Rain
9:12 PM 54.5 °F - 52.2 °F 92% 29.84 in 7.0 mi NNW 13.8 mph - 0.03 in Rain Rain
9:32 PM 54.5 °F - 52.0 °F 91% 29.85 in 10.0 mi NNW 15.0 mph - 0.03 in   Overcast
9:52 PM 54.0 °F - 51.8 °F 92% 29.85 in 10.0 mi NNW 15.0 mph - 0.03 in Rain Light Rain
10:12 PM 53.6 °F - 51.4 °F 92% 29.85 in 7.0 mi North 12.7 mph - 0.05 in Rain Heavy Rain
10:32 PM 53.2 °F - 51.3 °F 93% 29.88 in 7.0 mi NNW 10.4 mph - 0.15 in Rain Heavy Rain
10:52 PM 52.9 °F - 50.9 °F 93% 29.88 in 7.0 mi North 11.5 mph - 0.21 in Rain Heavy Rain
11:12 PM 52.7 °F - 50.2 °F 91% 29.86 in 7.0 mi North 11.5 mph 16.1 mph 0.04 in Rain Rain
11:32 PM 52.5 °F - 50.4 °F 92% 29.84 in 7.0 mi North 12.7 mph 18.4 mph 0.10 in Rain Rain
11:52 PM 52.5 °F - 50.5 °F 93% 29.80 in 10.0 mi North 16.1 mph 24.2 mph 0.13 in Rain Light Rain